EW9485 Weather Reports


Display with metric or nautical units.
time (UTC)temp
F
wind
direction
speed
MPH
gust
MPH
rain 1hr
in
rain 24hr
in
rain mn
in
humidity
%
barometer
mb
20260507151557 82 193 7.0 16.0 0.00 0.00 0.00 78 1015.1
20260507151049 82 223 7.0 14.0 0.00 0.00 0.00 78 1015.0
20260507150547 81 215 6.0 14.0 0.00 0.00 0.00 79 1015.0
20260507150057 82 219 7.0 14.0 0.00 0.00 0.00 78 1014.9
20260507145547 82 168 6.0 17.0 0.00 0.00 0.00 78 1014.9
20260507145050 82 175 8.0 19.0 0.00 0.00 0.00 78 1014.7
20260507144553 82 217 7.0 19.0 0.00 0.00 0.00 77 1014.7
20260507144047 83 212 8.0 17.0 0.00 0.00 0.00 76 1014.7
20260507143546 83 207 8.0 15.0 0.00 0.00 0.00 76 1014.6
20260507143116 83 186 7.0 15.0 0.00 0.00 0.00 77 1014.8
20260507142551 83 197 7.0 14.0 0.00 0.00 0.00 77 1014.8
20260507142049 82 196 7.0 14.0 0.00 0.00 0.00 78 1014.6
20260507141557 82 199 7.0 14.0 0.00 0.00 0.00 78 1014.7
20260507141048 81 171 7.0 15.0 0.00 0.00 0.00 79 1014.8
20260507140548 81 211 8.0 15.0 0.00 0.00 0.00 80 1015.0
20260507140110 80 202 6.0 13.0 0.00 0.00 0.00 80 1014.9
20260507135549 80 163 5.0 17.0 0.00 0.00 0.00 81 1014.7
20260507135047 80 223 6.0 17.0 0.00 0.00 0.00 81 1014.8
20260507134554 79 185 6.0 17.0 0.00 0.00 0.00 81 1015.0
20260507134046 79 202 5.0 11.0 0.00 0.00 0.00 83 1014.9
20260507133548 79 205 5.0 10.0 0.00 0.00 0.00 84 1014.9
20260507133100 78 180 4.0 9.0 0.00 0.00 0.00 85 1014.9
20260507132548 78 186 4.0 9.0 0.00 0.00 0.00 85 1015.0
20260507132046 77 198 4.0 10.0 0.00 0.00 0.00 85 1015.0
20260507131616 77 173 4.0 10.0 0.00 0.00 0.00 86 1015.1
20260507131047 77 174 3.0 9.0 0.00 0.00 0.00 86 1015.0
20260507130548 77 246 3.0 11.0 0.00 0.00 0.00 86 1015.0
20260507130052 76 189 5.0 11.0 0.00 0.00 0.00 87 1014.9
20260507125547 76 196 4.0 9.0 0.00 0.00 0.00 87 1014.9
20260507125049 76 175 4.0 8.0 0.00 0.00 0.00 88 1014.8
20260507124600 76 190 5.0 8.0 0.00 0.00 0.00 88 1014.8
20260507124049 76 218 3.0 8.0 0.00 0.00 0.00 88 1014.6
20260507123549 76 192 4.0 10.0 0.00 0.00 0.00 88 1014.6
20260507123058 75 181 5.0 10.0 0.00 0.00 0.00 89 1014.5
20260507122546 75 184 4.0 9.0 0.00 0.00 0.00 89 1014.4
20260507122049 75 185 2.0 10.0 0.00 0.00 0.00 89 1014.5
20260507121558 75 194 4.0 10.0 0.00 0.00 0.00 89 1014.5
20260507121048 75 181 3.0 6.0 0.00 0.00 0.00 89 1014.3
20260507120547 75 195 2.0 6.0 0.00 0.00 0.00 89 1014.5
20260507120055 74 165 1.0 5.0 0.00 0.00 0.00 89 1014.5
20260507115547 74 173 3.0 7.0 0.00 0.00 0.00 89 1014.4
20260507115047 74 181 3.0 7.0 0.00 0.00 0.00 89 1014.3
20260507114555 74 242 2.0 7.0 0.00 0.00 0.00 89 1014.2
20260507114051 74 186 3.0 7.0 0.00 0.00 0.00 89 1013.9
20260507113547 74 192 2.0 7.0 0.00 0.00 0.00 89 1013.7
20260507113128 74 229 0.0 8.0 0.00 0.00 0.00 89 1013.7
20260507112548 74 257 2.0 9.0 0.00 0.00 0.00 89 1013.5
20260507112044 74 195 3.0 9.0 0.00 0.00 0.00 89 1013.3
20260507111559 74 166 2.0 9.0 0.00 0.00 0.00 89 1013.2
20260507111044 74 236 3.0 9.0 0.00 0.00 0.00 89 1013.3
20260507110547 74 178 3.0 8.0 0.00 0.00 0.00 89 1013.2
20260507110054 74 173 3.0 10.0 0.00 0.00 0.00 89 1012.9
20260507105549 74 176 3.0 13.0 0.00 0.00 0.00 89 1013.0
20260507105046 74 196 3.0 15.0 0.00 0.00 0.00 89 1013.1
20260507104609 74 180 5.0 15.0 0.00 0.00 0.00 89 1013.0
20260507104046 74 181 4.0 14.0 0.00 0.00 0.00 89 1012.8
20260507103546 74 188 6.0 14.0 0.00 0.00 0.00 89 1012.7
20260507103059 74 197 6.0 14.0 0.00 0.00 0.00 89 1012.7
20260507102547 73 190 5.0 11.0 0.00 0.00 0.00 89 1012.6
20260507102048 73 188 5.0 16.0 0.00 0.00 0.00 89 1012.4
20260507101559 73 169 5.0 16.0 0.00 0.00 0.00 89 1012.4
20260507101050 74 192 6.0 15.0 0.00 0.00 0.00 89 1012.5
20260507100546 74 192 6.0 13.0 0.00 0.00 0.00 89 1012.4
20260507100101 73 172 6.0 13.0 0.00 0.00 0.00 89 1012.4
20260507095547 73 171 6.0 14.0 0.00 0.00 0.00 90 1012.4
20260507095046 73 182 6.0 14.0 0.00 0.00 0.00 90 1012.4
20260507094555 73 184 5.0 10.0 0.00 0.00 0.00 90 1012.4
20260507094051 73 170 5.0 12.0 0.00 0.00 0.00 90 1012.5
20260507093547 73 170 6.0 13.0 0.00 0.00 0.00 90 1012.5
20260507093052 74 198 6.0 13.0 0.00 0.00 0.00 90 1012.5
20260507092544 74 173 5.0 13.0 0.00 0.00 0.00 90 1012.7
20260507092047 74 188 5.0 13.0 0.00 0.00 0.00 90 1012.7
20260507091552 74 184 5.0 13.0 0.00 0.00 0.00 90 1012.8
20260507091044 74 202 5.0 14.0 0.00 0.00 0.00 90 1012.7
20260507090544 74 186 6.0 14.0 0.00 0.00 0.00 89 1012.6
20260507090053 74 179 6.0 11.0 0.00 0.00 0.00 90 1012.7
20260507085543 74 168 5.0 11.0 0.00 0.00 0.00 89 1012.8
20260507085044 74 168 5.0 16.0 0.00 0.00 0.00 90 1012.9
20260507084557 74 184 4.0 16.0 0.00 0.00 0.00 90 1012.9
20260507084043 74 182 4.0 12.0 0.00 0.00 0.00 90 1013.0
20260507083543 74 194 6.0 12.0 0.00 0.00 0.00 90 1012.8
20260507083053 74 189 4.0 11.0 0.00 0.00 0.00 89 1012.9
20260507082544 74 197 6.0 15.0 0.00 0.00 0.00 89 1013.1
20260507082044 74 157 4.0 15.0 0.00 0.00 0.00 89 1013.2
20260507081554 74 167 4.0 11.0 0.00 0.00 0.00 89 1013.3
20260507081044 74 166 4.0 11.0 0.00 0.00 0.00 89 1013.2
20260507080545 74 197 6.0 12.0 0.00 0.00 0.00 89 1013.3
20260507080054 74 184 4.0 12.0 0.00 0.00 0.00 89 1013.3
20260507075546 74 178 5.0 11.0 0.00 0.00 0.00 89 1013.2
20260507075044 74 186 4.0 11.0 0.00 0.00 0.00 89 1013.2
20260507074557 74 164 6.0 11.0 0.00 0.00 0.00 89 1013.2
20260507074042 74 190 6.0 11.0 0.00 0.00 0.00 89 1013.3
20260507073544 74 171 4.0 10.0 0.00 0.00 0.00 89 1013.4
20260507073056 74 182 4.0 11.0 0.00 0.00 0.00 89 1013.4
20260507072543 74 169 4.0 11.0 0.00 0.00 0.00 89 1013.2
20260507072047 74 157 4.0 14.0 0.00 0.00 0.00 89 1013.4
20260507071556 74 157 5.0 14.0 0.00 0.00 0.00 89 1013.4
20260507071042 74 176 7.0 14.0 0.00 0.00 0.00 89 1013.3
20260507070542 74 194 6.0 15.0 0.00 0.00 0.00 89 1013.3
20260507070105 74 173 7.0 15.0 0.00 0.00 0.00 89 1013.2
20260507065543 74 197 5.0 13.0 0.00 0.00 0.00 89 1013.2
20260507065043 74 161 5.0 12.0 0.00 0.00 0.00 89 1013.3
20260507064553 74 199 5.0 11.0 0.00 0.00 0.00 89 1013.6
20260507064043 74 169 5.0 14.0 0.00 0.00 0.00 89 1013.6
20260507063543 74 168 6.0 14.0 0.00 0.00 0.00 89 1013.8
20260507063055 74 188 5.0 14.0 0.00 0.00 0.00 89 1014.0
20260507062550 74 178 5.0 14.0 0.00 0.00 0.00 89 1014.0
20260507062050 74 145 7.0 14.0 0.00 0.00 0.00 89 1013.8
20260507061549 74 165 6.0 13.0 0.00 0.00 0.00 89 1014.1
20260507061048 74 178 5.0 10.0 0.00 0.00 0.00 89 1014.1
20260507060551 74 193 5.0 12.0 0.00 0.00 0.00 89 1014.2
20260507060053 74 171 6.0 12.0 0.00 0.00 0.00 89 1014.2
20260507055547 74 169 5.0 11.0 0.00 0.00 0.00 89 1014.3
20260507055046 74 163 3.0 11.0 0.00 0.00 0.00 89 1014.5
20260507054548 74 169 4.0 12.0 0.00 0.00 0.00 89 1014.3
20260507054049 74 169 5.0 12.0 0.00 0.00 0.00 89 1014.1
20260507053548 74 166 5.0 14.0 0.00 0.00 0.00 89 1014.2
20260507053051 74 157 6.0 15.0 0.00 0.00 0.00 89 1014.1
20260507052546 74 167 6.0 15.0 0.00 0.00 0.00 89 1014.2
20260507052048 74 168 7.0 14.0 0.00 0.00 0.00 89 1014.1
20260507051600 74 184 6.0 11.0 0.00 0.00 0.00 89 1014.1
20260507051046 74 148 6.0 17.0 0.00 0.00 0.00 89 1014.1
20260507050553 74 178 6.0 17.0 0.00 0.00 0.00 89 1014.2
20260507050107 74 148 5.0 15.0 0.00 0.00 0.00 89 1014.3
20260507045548 74 170 7.0 14.0 0.00 0.00 0.00 89 1014.2
20260507045047 74 158 5.0 14.0 0.00 0.00 0.00 88 1014.3
20260507044555 74 154 7.0 14.0 0.00 0.00 0.00 88 1014.3
20260507044051 74 156 6.0 15.0 0.00 0.00 0.00 88 1014.2
20260507043547 74 163 6.0 16.0 0.00 0.00 0.00 88 1014.3
20260507043049 74 165 5.0 16.0 0.00 0.00 0.00 88 1014.5
20260507042548 74 182 9.0 16.0 0.00 0.00 0.00 88 1014.6
20260507042046 74 175 6.0 15.0 0.00 0.00 0.00 88 1014.7
20260507041548 74 185 6.0 15.0 0.00 0.00 0.00 88 1014.7
20260507041047 74 186 5.0 14.0 0.00 0.00 0.00 88 1014.7
20260507040546 74 146 5.0 15.0 0.00 0.00 0.00 88 1014.6
20260507040050 74 169 7.0 16.0 0.00 0.00 0.00 88 1014.7
20260507035547 74 154 9.0 16.0 0.00 0.00 0.00 88 1014.7
20260507035048 74 168 5.0 11.0 0.00 0.00 0.00 87 1015.0
20260507034550 74 148 5.0 11.0 0.00 0.00 0.00 87 1015.2
20260507034048 74 165 5.0 10.0 0.00 0.00 0.00 87 1015.2
20260507033549 74 159 5.0 11.0 0.00 0.00 0.00 87 1015.2
20260507033053 74 155 6.0 14.0 0.00 0.00 0.00 87 1015.2
20260507032549 74 162 6.0 14.0 0.00 0.00 0.00 87 1015.2
20260507032047 74 178 5.0 12.0 0.00 0.00 0.00 87 1015.4
20260507031554 74 161 7.0 12.0 0.00 0.00 0.00 87 1015.5
20260507031048 74 168 4.0 10.0 0.00 0.00 0.00 87 1015.4
20260507030548 74 164 4.0 11.0 0.00 0.00 0.00 87 1015.2
20260507030055 74 166 4.0 11.0 0.00 0.00 0.00 87 1015.0
20260507025549 74 159 4.0 12.0 0.00 0.00 0.00 87 1014.9
20260507025047 74 157 5.0 12.0 0.00 0.00 0.00 87 1015.0
20260507024551 74 150 5.0 10.0 0.00 0.00 0.00 87 1015.0
20260507024049 74 175 4.0 11.0 0.00 0.00 0.00 87 1014.9
20260507023550 74 160 5.0 11.0 0.00 0.00 0.00 87 1014.8
20260507023051 74 160 5.0 12.0 0.00 0.00 0.00 87 1014.7
20260507022547 74 159 5.0 12.0 0.00 0.00 0.00 87 1014.5
20260507022048 74 163 4.0 12.0 0.00 0.00 0.00 87 1014.7
20260507021559 74 167 3.0 9.0 0.00 0.00 0.00 86 1014.5
20260507021048 74 161 4.0 10.0 0.00 0.00 0.00 86 1014.6
20260507020548 74 173 3.0 10.0 0.00 0.00 0.00 86 1014.7
20260507020052 74 177 3.0 10.0 0.00 0.00 0.00 86 1014.8
20260507015547 74 169 2.0 11.0 0.00 0.00 0.00 86 1014.5
20260507015047 74 162 3.0 11.0 0.00 0.00 0.00 86 1014.4
20260507014557 74 167 4.0 10.0 0.00 0.00 0.00 86 1014.2
20260507014048 74 144 3.0 10.0 0.00 0.00 0.00 86 1014.2
20260507013546 75 134 3.0 10.0 0.00 0.00 0.00 85 1014.3
20260507013053 75 153 3.0 10.0 0.00 0.00 0.00 85 1014.3
20260507012550 75 157 4.0 10.0 0.00 0.00 0.00 85 1014.5
20260507012049 75 167 3.0 9.0 0.00 0.00 0.00 85 1014.7
20260507011550 75 159 2.0 9.0 0.00 0.00 0.00 85 1015.0
20260507011049 75 167 2.0 9.0 0.00 0.00 0.00 84 1014.9
20260507010547 75 159 4.0 9.0 0.00 0.00 0.00 84 1014.6
20260507010047 75 188 1.0 10.0 0.00 0.00 0.00 84 1014.5
20260507005547 75 0 4.0 10.0 0.00 0.00 0.00 84 1014.6
20260507005048 75 171 2.0 9.0 0.00 0.00 0.00 84 1014.4
20260507004550 75 163 3.0 9.0 0.00 0.00 0.00 84 1014.6
20260507004048 75 146 3.0 9.0 0.00 0.00 0.00 84 1014.6
20260507003547 75 173 3.0 13.0 0.00 0.00 0.00 83 1014.5
20260507003051 75 179 6.0 13.0 0.00 0.00 0.00 83 1014.4
20260507002542 75 153 6.0 10.0 0.00 0.00 0.00 83 1014.3
20260507002045 75 181 4.0 9.0 0.00 0.00 0.00 83 1014.2
20260507001553 75 178 5.0 11.0 0.00 0.00 0.00 82 1014.1
20260507001042 76 158 4.0 11.0 0.00 0.00 0.00 82 1014.1
20260507000542 76 196 7.0 11.0 0.00 0.00 0.00 82 1014.0
20260507000054 76 157 5.0 11.0 0.00 0.00 0.00 81 1014.1
20260506235543 76 172 4.0 14.0 0.00 0.00 0.00 81 1014.1
20260506235041 76 185 7.0 15.0 0.00 0.00 0.00 80 1014.0
20260506234615 77 175 6.0 15.0 0.00 0.00 0.00 79 1013.9
20260506234042 77 170 5.0 12.0 0.00 0.00 0.00 78 1013.9
20260506233543 77 199 5.0 16.0 0.00 0.00 0.00 78 1014.1
20260506233052 77 182 8.0 16.0 0.00 0.00 0.00 77 1014.0
20260506232545 78 182 7.0 13.0 0.00 0.00 0.00 76 1013.9
20260506232045 78 196 6.0 16.0 0.00 0.00 0.00 76 1014.0
20260506231556 78 166 5.0 16.0 0.00 0.00 0.00 75 1014.0
20260506231045 79 173 7.0 16.0 0.00 0.00 0.00 74 1014.0
20260506230544 79 192 7.0 14.0 0.00 0.00 0.00 72 1014.0
20260506230051 79 154 6.0 13.0 0.00 0.00 0.00 72 1013.9
20260506225546 80 152 7.0 14.0 0.00 0.00 0.00 71 1014.1
20260506225042 80 192 6.0 14.0 0.00 0.00 0.00 70 1014.1
20260506224553 80 180 6.0 11.0 0.00 0.00 0.00 70 1014.2
20260506224042 80 188 6.0 12.0 0.00 0.00 0.00 69 1014.3
20260506223543 80 184 7.0 12.0 0.00 0.00 0.00 68 1014.3
20260506223056 81 196 6.0 12.0 0.00 0.00 0.00 67 1014.3
20260506222543 81 190 5.0 13.0 0.00 0.00 0.00 67 1014.6
20260506222045 81 186 6.0 14.0 0.00 0.00 0.00 67 1014.6
20260506221551 82 190 6.0 14.0 0.00 0.00 0.00 67 1014.7
20260506221044 81 195 6.0 14.0 0.00 0.00 0.00 70 1014.7
20260506220542 81 165 7.0 14.0 0.00 0.00 0.00 66 1014.5
20260506220052 81 175 6.0 12.0 0.00 0.00 0.00 67 1014.7
20260506215546 81 173 6.0 12.0 0.00 0.00 0.00 65 1014.9
20260506215044 81 189 7.0 12.0 0.00 0.00 0.00 67 1015.0
20260506214550 82 180 5.0 11.0 0.00 0.00 0.00 65 1015.1
20260506214044 82 202 5.0 12.0 0.00 0.00 0.00 69 1015.2
20260506213545 81 192 7.0 12.0 0.00 0.00 0.00 66 1015.2
20260506213054 81 191 8.0 12.0 0.00 0.00 0.00 66 1015.3
20260506212543 82 171 6.0 12.0 0.00 0.00 0.00 65 1015.1
20260506212048 82 143 6.0 12.0 0.00 0.00 0.00 66 1015.3
20260506211554 82 176 7.0 12.0 0.00 0.00 0.00 64 1015.1
20260506211047 83 188 5.0 11.0 0.00 0.00 0.00 63 1015.2
20260506210548 83 173 5.0 11.0 0.00 0.00 0.00 67 1015.3
20260506210057 82 164 6.0 11.0 0.00 0.00 0.00 65 1015.4
20260506205546 83 188 6.0 12.0 0.00 0.00 0.00 64 1015.4
20260506205047 83 186 5.0 13.0 0.00 0.00 0.00 63 1015.4
20260506204558 84 179 4.0 13.0 0.00 0.00 0.00 63 1015.4
20260506204047 84 230 5.0 13.0 0.00 0.00 0.00 61 1015.4
20260506203544 84 218 4.0 11.0 0.00 0.00 0.00 63 1015.5
20260506203058 84 185 5.0 11.0 0.00 0.00 0.00 64 1015.5
20260506202550 84 234 5.0 10.0 0.00 0.00 0.00 60 1015.5
20260506202044 84 236 5.0 12.0 0.00 0.00 0.00 62 1015.9
20260506201558 84 173 6.0 15.0 0.00 0.00 0.00 66 1015.7
20260506201050 83 160 5.0 15.0 0.00 0.00 0.00 65 1016.0
20260506200551 84 155 5.0 12.0 0.00 0.00 0.00 64 1016.1
20260506200109 84 180 5.0 12.0 0.00 0.00 0.00 65 1016.3
20260506195551 85 171 5.0 12.0 0.00 0.00 0.00 64 1016.5
20260506195051 84 166 5.0 11.0 0.00 0.00 0.00 63 1016.4
20260506194611 85 225 5.0 11.0 0.00 0.00 0.00 60 1016.5
20260506194047 84 197 6.0 10.0 0.00 0.00 0.00 62 1016.4
20260506193547 85 175 5.0 11.0 0.00 0.00 0.00 63 1016.6
20260506193052 84 198 6.0 11.0 0.00 0.00 0.00 65 1016.6
20260506192548 84 187 5.0 11.0 0.00 0.00 0.00 65 1016.7
20260506192051 83 232 5.0 11.0 0.00 0.00 0.00 69 1016.8
20260506191552 84 218 5.0 12.0 0.00 0.00 0.00 65 1016.9
20260506191051 85 191 5.0 12.0 0.00 0.00 0.00 67 1016.8
20260506190545 84 219 6.0 13.0 0.00 0.00 0.00 64 1016.9
20260506190049 84 188 5.0 13.0 0.00 0.00 0.00 62 1016.9
20260506185548 83 218 5.0 10.0 0.00 0.00 0.00 64 1016.9
20260506185052 84 178 4.0 10.0 0.00 0.00 0.00 62 1016.9
20260506184602 86 190 4.0 11.0 0.00 0.00 0.00 63 1016.9
20260506184048 85 161 6.0 11.0 0.00 0.00 0.00 65 1016.9
20260506183551 84 184 4.0 11.0 0.00 0.00 0.00 65 1016.9
20260506183102 83 179 4.0 12.0 0.00 0.00 0.00 67 1017.0
20260506182547 84 179 6.0 12.0 0.00 0.00 0.00 65 1016.8
20260506182047 85 198 4.0 12.0 0.00 0.00 0.00 63 1017.0
20260506181558 85 242 3.0 12.0 0.00 0.00 0.00 70 1017.2
20260506181048 84 170 4.0 12.0 0.00 0.00 0.00 64 1017.1
20260506180613 84 186 5.0 12.0 0.00 0.00 0.00 67 1017.2
20260506180057 84 238 4.0 12.0 0.00 0.00 0.00 64 1017.2
20260506175546 84 205 6.0 12.0 0.00 0.00 0.00 66 1017.2
20260506175043 84 187 6.0 12.0 0.00 0.00 0.00 67 1017.2
20260506174549 84 195 4.0 10.0 0.00 0.00 0.00 65 1017.2
20260506174044 83 185 4.0 10.0 0.00 0.00 0.00 69 1017.2
20260506173547 84 207 5.0 9.0 0.00 0.00 0.00 64 1017.2
20260506173054 83 202 4.0 9.0 0.00 0.00 0.00 68 1017.3
20260506172543 83 229 4.0 9.0 0.00 0.00 0.00 66 1017.4
20260506172043 83 183 5.0 9.0 0.00 0.00 0.00 66 1017.4
20260506171600 84 192 5.0 9.0 0.00 0.00 0.00 66 1017.6
20260506171048 83 223 2.0 9.0 0.00 0.00 0.00 68 1017.6
20260506170542 82 217 4.0 10.0 0.00 0.00 0.00 72 1017.6
20260506170054 83 184 5.0 10.0 0.00 0.00 0.00 66 1017.6
20260506165544 83 219 4.0 10.0 0.00 0.00 0.00 69 1017.6
20260506165042 82 183 5.0 9.0 0.00 0.00 0.00 70 1017.5
20260506164557 82 209 3.0 9.0 0.00 0.00 0.00 70 1017.3
20260506164043 81 186 5.0 10.0 0.00 0.00 0.00 71 1017.3
20260506163542 81 211 4.0 10.0 0.00 0.00 0.00 71 1017.3
20260506163055 81 200 4.0 13.0 0.00 0.00 0.00 74 1017.4
20260506162541 82 180 5.0 13.0 0.00 0.00 0.00 71 1017.3
20260506162041 81 193 3.0 10.0 0.00 0.00 0.00 71 1017.3
20260506161604 81 174 6.0 12.0 0.00 0.00 0.00 70 1017.3
20260506161045 80 185 6.0 12.0 0.00 0.00 0.00 72 1017.3
20260506160545 80 194 7.0 12.0 0.00 0.00 0.00 71 1017.1
20260506160049 81 198 5.0 12.0 0.00 0.00 0.00 71 1017.2
20260506155542 80 166 5.0 14.0 0.00 0.00 0.00 73 1017.1
20260506155046 80 165 6.0 17.0 0.00 0.00 0.00 72 1017.1
20260506154550 80 150 5.0 17.0 0.00 0.00 0.00 75 1017.1
20260506154048 79 195 7.0 17.0 0.00 0.00 0.00 73 1017.1
20260506153543 80 162 7.0 15.0 0.00 0.00 0.00 73 1017.0
20260506153054 79 205 6.0 14.0 0.00 0.00 0.00 76 1017.0
20260506152542 79 189 6.0 14.0 0.00 0.00 0.00 74 1017.0
20260506152047 79 161 6.0 13.0 0.00 0.00 0.00 78 1016.8